EST,Max TemperatureF,Mean TemperatureF,Min TemperatureF,Max Dew PointF,MeanDew PointF,Min DewpointF,Max Humidity, Mean Humidity, Min Humidity, Max Sea Level PressureIn, Mean Sea Level PressureIn, Min Sea Level PressureIn, Max VisibilityMiles, Mean VisibilityMiles, Min VisibilityMiles, Max Wind SpeedMPH, Mean Wind SpeedMPH, Max Gust SpeedMPH,PrecipitationIn, CloudCover, Events, WindDirDegrees
2013-2-1,39,31,23,25,2,-9,60,31,15,30.37,30.11,29.77,10,10,7,15,6,25,0.00,2,,259
2013-2-2,37,27,17,25,12,0,80,53,24,30.37,30.21,29.99,10,10,3,14,3,23,0.00,3,Snow,211
2013-2-3,44,35,26,25,18,10,86,50,29,29.98,29.89,29.82,10,10,10,10,3,25,0.00,6,,249
2013-2-4,41,31,21,21,14,9,74,45,31,30.10,30.00,29.91,10,10,10,10,3,,0.00,1,,222
2013-2-5,60,48,37,28,25,19,56,42,29,29.92,29.88,29.83,10,10,10,13,6,21,0.00,4,,225
2013-2-6,57,46,35,32,23,14,87,44,20,30.30,30.12,29.92,10,10,10,9,2,18,0.00,1,,305
2013-2-7,44,38,33,36,25,19,93,59,39,30.38,30.29,30.11,10,10,5,9,6,,0.12,5,Rain,24
2013-2-8,55,45,35,39,32,18,100,69,35,30.11,29.89,29.76,10,9,4,15,8,22,0.25,5,Rain-Snow,322
2013-2-9,51,40,28,19,12,1,64,37,13,30.36,30.19,29.97,10,10,10,12,2,17,0.00,0,,307
2013-2-10,48,34,19,36,16,9,93,50,23,30.48,30.37,30.21,10,10,7,10,1,,0.03,1,Rain,166
2013-2-11,57,48,39,54,45,36,100,87,47,30.20,29.97,29.82,10,7,0,15,5,23,0.05,6,Rain,222
2013-2-12,60,52,44,36,19,10,47,27,14,30.00,29.94,29.86,10,10,10,13,5,18,0.00,0,,231
2013-2-13,50,42,35,41,33,21,100,70,34,29.92,29.76,29.62,10,7,1,8,3,,0.06,7,Rain,8
2013-2-14,53,40,28,37,27,21,100,68,28,30.03,29.95,29.79,10,7,0,10,1,17,0.00,1,Fog,212
2013-2-15,62,45,28,36,27,18,100,52,18,30.05,29.97,29.88,10,10,10,13,3,22,0.00,2,Rain,224
2013-2-16,44,37,28,39,33,25,100,90,66,29.98,29.90,29.83,10,5,0,7,2,,0.18,8,Rain-Snow,8
2013-2-17,33,26,19,25,7,-6,86,48,18,30.23,30.04,29.87,10,10,10,12,3,21,0.00,1,,277
2013-2-18,48,32,15,19,10,1,79,40,20,30.37,30.28,30.18,10,10,10,12,4,16,0.02,0,,211
2013-2-19,48,42,35,43,30,16,93,65,36,30.16,29.95,29.78,10,10,4,15,8,24,0.13,4,Rain,210
2013-2-20,48,40,33,14,5,-2,38,25,13,30.13,30.01,29.89,10,10,10,13,5,21,0.00,0,,261
2013-2-21,50,38,26,16,11,7,64,34,19,30.30,30.17,30.11,10,10,10,10,2,,0.00,0,,359
2013-2-22,42,38,33,32,20,12,81,51,38,30.35,30.26,30.15,10,10,5,7,3,,0.02,7,Rain-Snow,30
2013-2-23,48,42,35,43,38,34,100,92,76,30.15,29.94,29.80,10,5,1,8,2,,0.02,6,Rain,7
2013-2-24,60,48,35,43,27,9,100,59,14,30.08,29.89,29.78,10,6,0,12,2,21,0.00,4,Fog,302
2013-2-25,46,36,26,21,17,12,74,51,25,30.22,30.16,30.08,10,10,10,9,3,,0.00,0,,31
2013-2-26,48,37,26,46,32,19,100,82,60,30.18,29.90,29.57,10,7,2,15,5,21,0.87,7,Rain,10
2013-2-27,57,46,35,43,35,27,100,66,31,29.70,29.65,29.56,10,8,2,14,5,22,0.00,4,Rain,231
2013-2-28,48,40,33,34,24,16,81,50,27,29.78,29.70,29.65,10,10,10,12,5,21,0.00,4,,251